Weather History for K0VG - December, 2012

Change the Weather History Date:

Friday, December 21, 2012

  Actual Average (KLOZ) Record (KLOZ)
Temperature  
Mean Temperature 32 °F 37 °F  
Max Temperature 35 °F 46 °F 72 °F (1967)
Min Temperature 28 °F 28 °F 0 °F (1960)
Degree Days  
Heating Degree Days 34 28  
Month to date heating degree days 536  
Since 1 July heating degree days 1366  
Cooling Degree Days 0 0  
Month to date cooling degree days 0  
Moisture  
Dew Point 23 °F    
Average Humidity 71    
Maximum Humidity 93    
Minimum Humidity 55    
Precipitation  
Precipitation 1.67 in 0.13 in 1.47 in (1981)
Month to date precipitation 2.97  
Sea Level Pressure  
Sea Level Pressure 29.87 in    
Wind  
Wind Speed 12 mph (West)    
Max Wind Speed 18 mph    
Max Gust Speed 31 mph    
Visibility 7 miles    
Events Rain , Snow    
T = Trace of Precipitation, MM = Missing Value Source: NWS Daily Summary

Daily Weather History Graph

Daily Weather History Graph

Search for Another Location

Airport or City:

Trip Planner

Search our weather history database for the weather conditions in past years. The results will help you decide how hot, cold, wet, or windy it might be!

Date:

Astronomy

Dec. 21, 2012 Rise Set
Actual Time 7:41 AM EST 5:20 PM EST
Civil Twilight 7:12 AM EST 5:49 PM EST
Nautical Twilight 6:40 AM EST 6:22 PM EST
Astronomical Twilight 6:08 AM EST 6:53 PM EST
Moon 1:01 PM EST (12/21) 1:34 AM EST (12/21)
Length of Visible Light 10h 37m
Length of Day
9h 39m
Waxing Gibbous, 64% of the Moon is Illuminated
Dec 21
Waxing Gibbous
Dec 28
Full
Jan 4
Last Quarter
Jan 11
New
Jan 18
First Quarter

Hourly Weather History & Observations

Time (EST) Temp. Windchill Dew Point Humidity Pressure Visibility Wind Dir Wind Speed Gust Speed Precip Events Conditions
12:15 AM 35.6 °F 26.6 °F 28.4 °F 75% 29.73 in 10.0 mi WSW 13.8 mph 19.6 mph N/A Rain Light Rain
12:35 AM 35.6 °F 26.6 °F 28.4 °F 75% 29.73 in 10.0 mi WSW 13.8 mph 19.6 mph N/A   Overcast
12:55 AM 33.8 °F 25.8 °F 28.4 °F 81% 29.73 in 9.0 mi WSW 10.4 mph 17.3 mph N/A Rain Light Rain
1:15 AM 33.8 °F 25.3 °F 28.4 °F 81% 29.73 in 10.0 mi WSW 11.5 mph - N/A Rain Light Rain
1:35 AM 33.8 °F 26.4 °F 28.4 °F 81% 29.73 in 10.0 mi WSW 9.2 mph - N/A Rain Light Rain
1:55 AM 33.8 °F 24.3 °F 28.4 °F 81% 29.72 in 10.0 mi West 13.8 mph 19.6 mph N/A Rain Light Rain
2:15 AM 33.8 °F 25.3 °F 26.6 °F 75% 29.73 in 10.0 mi West 11.5 mph - N/A   Overcast
2:35 AM 32.0 °F 24.8 °F 30.2 °F 93% 29.73 in 4.0 mi WSW 8.1 mph - N/A   Overcast
2:55 AM 32.0 °F 24.2 °F 30.2 °F 93% 29.73 in 3.0 mi WSW 9.2 mph - 0.08 in Snow Light Snow
3:15 AM 32.0 °F 21.6 °F 26.6 °F 80% 29.74 in 5.0 mi West 15.0 mph 24.2 mph 0.02 in Snow Light Snow
3:35 AM 32.0 °F 22.5 °F 24.8 °F 75% 29.74 in 10.0 mi West 12.7 mph 24.2 mph 0.02 in Rain Light Rain
3:55 AM 32.0 °F 22.1 °F 24.8 °F 75% 29.74 in 10.0 mi West 13.8 mph 24.2 mph 0.02 in Rain Light Rain
4:15 AM 32.0 °F 23.0 °F 24.8 °F 75% 29.74 in 7.0 mi WSW 11.5 mph 18.4 mph 0.01 in Snow Light Snow
4:35 AM 32.0 °F 20.8 °F 24.8 °F 75% 29.74 in 3.0 mi West 17.3 mph 21.9 mph 0.09 in Snow Light Snow
4:55 AM 32.0 °F 22.1 °F 23.0 °F 69% 29.75 in 6.0 mi West 13.8 mph 29.9 mph 0.11 in   Overcast
5:15 AM 32.0 °F 21.6 °F 23.0 °F 69% 29.75 in 7.0 mi West 15.0 mph 20.7 mph 0.01 in Snow Light Snow
5:35 AM 32.0 °F 23.0 °F 24.8 °F 75% 29.75 in 5.0 mi West 11.5 mph 24.2 mph 0.04 in Snow Light Snow
5:55 AM 32.0 °F 22.5 °F 24.8 °F 75% 29.75 in 4.0 mi West 12.7 mph 19.6 mph 0.10 in Snow Light Snow
6:15 AM 32.0 °F 24.2 °F 24.8 °F 75% 29.76 in 5.0 mi West 9.2 mph 20.7 mph 0.02 in Snow Light Snow
6:35 AM 32.0 °F 23.6 °F 24.8 °F 75% 29.77 in 4.0 mi West 10.4 mph 21.9 mph 0.08 in Snow Light Snow
6:55 AM 30.2 °F 21.9 °F 24.8 °F 80% 29.77 in 4.0 mi West 9.2 mph 16.1 mph 0.13 in Snow Light Snow
7:15 AM 30.2 °F 21.9 °F 24.8 °F 80% 29.78 in 3.0 mi West 9.2 mph - 0.05 in Snow Light Snow
7:35 AM 30.2 °F 20.8 °F 24.8 °F 80% 29.79 in 4.0 mi West 11.5 mph - 0.11 in Snow Light Snow
7:55 AM 30.2 °F 19.8 °F 23.0 °F 75% 29.79 in 4.0 mi WSW 13.8 mph 19.6 mph 0.15 in Snow Light Snow
8:15 AM 30.2 °F 19.3 °F 23.0 °F 75% 29.80 in 5.0 mi WSW 15.0 mph 20.7 mph N/A   Mostly Cloudy
8:35 AM 28.4 °F 17.5 °F 23.0 °F 80% 29.81 in 2.5 mi WSW 13.8 mph 18.4 mph 0.04 in Snow Light Snow
8:55 AM 28.4 °F 19.1 °F 24.8 °F 86% 29.81 in 1.0 mi West 10.4 mph - 0.19 in Snow Light Snow
9:15 AM 28.4 °F 19.1 °F 24.8 °F 86% 29.82 in 0.8 mi WSW 10.4 mph 17.3 mph 0.15 in Snow Light Snow
9:35 AM 28.4 °F 18.5 °F 24.8 °F 86% 29.83 in 1.2 mi WSW 11.5 mph - 0.30 in Snow Light Snow
9:55 AM 28.4 °F 18.0 °F 24.8 °F 86% 29.84 in 1.5 mi WSW 12.7 mph 17.3 mph 0.44 in Snow Light Snow
10:15 AM 28.4 °F 19.1 °F 24.8 °F 86% 29.85 in 1.2 mi WSW 10.4 mph 16.1 mph 0.09 in Snow Light Snow
10:35 AM 28.4 °F 19.7 °F 24.8 °F 86% 29.85 in 1.5 mi WSW 9.2 mph - 0.16 in Snow Light Snow
10:55 AM 28.4 °F 19.7 °F 26.6 °F 93% 29.86 in 1.0 mi West 9.2 mph 16.1 mph 0.23 in Snow Light Snow
11:15 AM 28.4 °F 16.6 °F 24.8 °F 86% 29.86 in 2.0 mi West 16.1 mph 19.6 mph 0.04 in Snow Light Snow
11:35 AM 30.2 °F 22.6 °F 24.8 °F 80% 29.85 in 2.0 mi West 8.1 mph 20.7 mph 0.08 in Snow Light Snow
11:55 AM 30.2 °F 18.9 °F 24.8 °F 80% 29.86 in 1.8 mi West 16.1 mph 24.2 mph 0.16 in Snow Light Snow
12:15 PM 30.2 °F 20.8 °F 24.8 °F 80% 29.86 in 1.5 mi West 11.5 mph 21.9 mph 0.04 in Snow Light Snow
12:35 PM 30.2 °F 20.2 °F 23.0 °F 75% 29.86 in 8.0 mi West 12.7 mph 21.9 mph 0.06 in Rain Light Freezing Rain
12:55 PM 32.0 °F 22.5 °F 23.0 °F 69% 29.86 in 6.0 mi West 12.7 mph 19.6 mph 0.06 in Rain Light Rain
1:15 PM 32.0 °F 22.5 °F 23.0 °F 69% 29.87 in 10.0 mi West 12.7 mph 19.6 mph N/A   Overcast
1:35 PM 32.0 °F 20.5 °F 23.0 °F 69% 29.87 in 10.0 mi West 18.4 mph 24.2 mph N/A Rain Light Rain
1:55 PM 32.0 °F 21.6 °F 23.0 °F 69% 29.87 in 10.0 mi West 15.0 mph 21.9 mph N/A   Mostly Cloudy
2:15 PM 32.0 °F 21.6 °F 23.0 °F 69% 29.87 in 7.0 mi West 15.0 mph 25.3 mph N/A Rain Light Rain
2:35 PM 32.0 °F 22.5 °F 21.2 °F 64% 29.88 in 10.0 mi West 12.7 mph 19.6 mph N/A   Mostly Cloudy
2:55 PM 32.0 °F 22.1 °F 23.0 °F 69% 29.88 in 10.0 mi West 13.8 mph 23.0 mph N/A   Overcast
3:15 PM 33.8 °F 25.3 °F 23.0 °F 65% 29.89 in 10.0 mi West 11.5 mph 18.4 mph N/A   Overcast
3:35 PM 33.8 °F 25.8 °F 23.0 °F 65% 29.89 in 10.0 mi West 10.4 mph 18.4 mph N/A   Overcast
3:55 PM 35.6 °F 29.2 °F 23.0 °F 60% 29.90 in 10.0 mi West 8.1 mph - N/A   Overcast
4:15 PM 35.6 °F 27.1 °F 23.0 °F 60% 29.90 in 10.0 mi West 12.7 mph 17.3 mph N/A   Overcast
4:35 PM 35.6 °F 27.1 °F 23.0 °F 60% 29.91 in 10.0 mi West 12.7 mph 18.4 mph N/A   Overcast
4:55 PM 35.6 °F 25.2 °F 21.2 °F 56% 29.92 in 10.0 mi West 18.4 mph 25.3 mph N/A   Overcast
5:15 PM 35.6 °F 27.1 °F 21.2 °F 56% 29.93 in 10.0 mi West 12.7 mph 21.9 mph N/A   Overcast
5:35 PM 35.6 °F 25.5 °F 21.2 °F 56% 29.94 in 10.0 mi West 17.3 mph 24.2 mph N/A   Overcast
5:55 PM 35.6 °F 26.2 °F 21.2 °F 56% 29.95 in 10.0 mi West 15.0 mph 31.1 mph N/A   Overcast
6:15 PM 33.8 °F 25.8 °F 21.2 °F 60% 29.97 in 10.0 mi West 10.4 mph 21.9 mph N/A   Overcast
6:35 PM 33.8 °F 24.3 °F 21.2 °F 60% 29.98 in 10.0 mi West 13.8 mph 24.2 mph N/A   Overcast
6:55 PM 33.8 °F 25.3 °F 21.2 °F 60% 29.99 in 10.0 mi West 11.5 mph 20.7 mph N/A   Overcast
7:15 PM 33.8 °F 25.3 °F 21.2 °F 60% 30.00 in 10.0 mi West 11.5 mph 19.6 mph N/A   Overcast
7:35 PM 33.8 °F 25.8 °F 21.2 °F 60% 30.01 in 10.0 mi WNW 10.4 mph 21.9 mph N/A   Overcast
7:55 PM 33.8 °F 25.3 °F 19.4 °F 56% 30.02 in 10.0 mi West 11.5 mph 21.9 mph N/A   Overcast
8:15 PM 33.8 °F 23.9 °F 21.2 °F 60% 30.03 in 10.0 mi WNW 15.0 mph 20.7 mph N/A   Overcast
8:35 PM 32.0 °F 23.0 °F 19.4 °F 60% 30.03 in 10.0 mi West 11.5 mph 16.1 mph N/A   Overcast
8:55 PM 32.0 °F 21.6 °F 19.4 °F 60% 30.04 in 10.0 mi West 15.0 mph 21.9 mph N/A   Overcast
9:15 PM 32.0 °F 22.5 °F 19.4 °F 60% 30.05 in 10.0 mi West 12.7 mph 18.4 mph N/A   Overcast
9:35 PM 32.0 °F 24.2 °F 19.4 °F 60% 30.06 in 10.0 mi West 9.2 mph 19.6 mph N/A   Overcast
9:55 PM 32.0 °F 21.6 °F 19.4 °F 60% 30.07 in 10.0 mi West 15.0 mph 21.9 mph N/A   Overcast
10:15 PM 32.0 °F 23.0 °F 19.4 °F 60% 30.08 in 10.0 mi WNW 11.5 mph - N/A   Overcast
10:35 PM 32.0 °F 22.1 °F 17.6 °F 55% 30.08 in 10.0 mi West 13.8 mph 21.9 mph N/A   Overcast
10:55 PM 32.0 °F 24.8 °F 17.6 °F 55% 30.09 in 10.0 mi West 8.1 mph - N/A   Overcast
11:15 PM 32.0 °F 24.8 °F 17.6 °F 55% 30.10 in 10.0 mi WNW 8.1 mph - N/A   Overcast
11:35 PM 32.0 °F 23.6 °F 17.6 °F 55% 30.10 in 10.0 mi West 10.4 mph - N/A   Overcast
11:55 PM 30.2 °F 22.6 °F 17.6 °F 60% 30.10 in 10.0 mi West 8.1 mph - N/A   Overcast